Tracking 29892 objects as of 21-Nov-2024
HD Live streaming from Space Station
objects crossing your sky now

DELTA 1 DEB

Track DELTA 1 DEB now!
10-day predictions


NORAD ID: 17765
Int'l Code: 1978-026GX
Perigee: 875.2 km
Apogee: 937.0 km
Inclination: 99.0 °
Period: 103.0 minutes
Semi major axis: 7277 km
RCS: 0.0048 m2 (small)
Launch date: March 5, 1978
Source: United States (US)
Launch site: AIR FORCE WESTERN TEST RANGE (AFWTR)

Note: This is SATELLITE DEBRIS
Your satellite tracking list
Your tracking list is empty




NASA's NSSDC Master Catalog

Two Line Element Set (TLE):
1 17765U 78026GX  24325.94896617  .00000152  00000-0  13583-3 0  9996
2 17765  99.0402  58.3229 0042505  76.4054 348.6075 13.98513488 20121
Source of the keplerian elements: AFSPC